Location: Chittendens Corners
(41.2320°N, 81.4940°W)
Time: 17:57:03
(UTC+00:00)

Cosmos 2263 Rocket - Pass Details

Date: 29 October 2020
Orbit: 822 x 850 km, 71.0° (Epoch: 28 November)

Event Time Altitude Azimuth Distance (km) Brightness Sun altitude
Rises 23:43:14 0° 348° (NNW) 3,420 5.5 -15.3°
Reaches altitude 10° 23:46:29 10° 6° (N) 2,483 4.5 -15.9°
Enters shadow 23:50:20 19° 49° (NE) 1,926 3.6 -16.7°
